This is the latest recevied weather packets stored in our database for station/object K2EJ-13. If no packets are shown the sender has not sent any weather packets the latest 10 day(s).
| Time | Temp. | Humidity | Pressure | Rain* | Wind** | Luminosity | Snow |
|---|---|---|---|---|---|---|---|
| 1777619115 | 6.11° C | 95% | 1013.5 hPa | 0 mm | - | - | - |
| 1777617315 | 6.67° C | 93% | 1013.1 hPa | 0 mm | - | - | - |
| 1777615516 | 7.22° C | 91% | 1013.3 hPa | 0 mm | - | - | - |
| 1777611315 | 8.89° C | 82% | 1012.9 hPa | 0 mm | - | - | - |
| 1777604715 | 10.56° C | 74% | 1012.2 hPa | 0 mm | - | - | - |
| 1777596316 | 13.33° C | 63% | 1010.9 hPa | 0 mm | - | - | - |
| 1777593315 | 15° C | 63% | 1009.8 hPa | 0 mm | - | - | - |
| 1777592136 | 15.56° C | 59% | 1009.4 hPa | 0 mm | - | - | - |
| 1777590916 | 16.11° C | 58% | 1009.2 hPa | 0 mm | - | - | - |
| 1777587915 | 17.78° C | 56% | 1008.3 hPa | 0 mm | - | - | - |
| 1777586716 | 18.33° C | 53% | 1008.1 hPa | 0 mm | - | - | - |
| 1777581915 | 19.44° C | 47% | 1007.1 hPa | 0 mm | - | - | - |
| 1777580735 | 20° C | 44% | 1006.9 hPa | 0 mm | - | - | - |
| 1777580116 | 19.44° C | 45% | 1006.8 hPa | 0 mm | - | - | - |
| 1777579515 | 20° C | 46% | 1006.8 hPa | 0 mm | - | - | - |
| 1777578315 | 21.67° C | 42% | 1006.7 hPa | 0 mm | - | - | - |
| 1777575916 | 19.44° C | 46% | 1006.8 hPa | 0 mm | - | - | - |
| 1777572936 | 21.11° C | 48% | 1006.9 hPa | 0 mm | - | - | - |
| 1777570515 | 20° C | 52% | 1007.3 hPa | 0 mm | - | - | - |
| 1777568716 | 20° C | 54% | 1007.4 hPa | 0 mm | - | - | - |
| 1777566916 | 19.44° C | 54% | 1007.5 hPa | 0 mm | - | - | - |
| 1777565115 | 18.89° C | 57% | 1007.8 hPa | 0 mm | - | - | - |
| 1777558516 | 17.78° C | 71% | 1008.5 hPa | 0 mm | - | - | - |
| 1777551916 | 14.44° C | 94% | 1007.5 hPa | 0 mm | - | - | - |
| 1777545316 | 11.67° C | 100% | 1007.2 hPa | 0 mm | - | - | - |
* Rain latest hour (hover to see other rain measurements)
** Current wind speed in m/s (hover to see current wind gust speed)